CST,Max TemperatureF,Mean TemperatureF,Min TemperatureF,Max Dew PointF,MeanDew PointF,Min DewpointF,Max Humidity, Mean Humidity, Min Humidity, Max Sea Level PressureIn, Mean Sea Level PressureIn, Min Sea Level PressureIn, Max VisibilityMiles, Mean VisibilityMiles, Min VisibilityMiles, Max Wind SpeedMPH, Mean Wind SpeedMPH, Max Gust SpeedMPH,PrecipitationIn, CloudCover, Events, WindDirDegrees
2013-1-1,32,24,15,32,26,14,100,96,79,30.28,30.17,30.08,10,7,2,12,7,17,0.00,7,,2
2013-1-2,35,24,12,18,15,11,96,72,40,30.28,30.25,30.19,10,10,10,7,2,,0.00,1,,222
2013-1-3,39,30,21,27,23,19,99,77,57,30.42,30.36,30.24,10,10,9,10,5,,0.00,3,,270
2013-1-4,42,32,22,25,22,19,100,73,41,30.47,30.39,30.33,10,10,10,10,3,,0.00,2,,223
2013-1-5,41,35,29,32,26,22,84,66,55,30.32,30.25,30.16,10,10,10,9,5,,0.00,6,Rain,217
2013-1-6,37,30,22,31,23,18,90,73,51,30.38,30.30,30.15,10,10,10,13,8,21,0.00,2,,289
2013-1-7,49,34,18,24,21,16,90,64,33,30.38,30.28,30.14,10,10,10,13,7,17,0.00,0,,163
2013-1-8,55,40,26,46,35,19,100,74,24,30.20,30.15,30.08,10,10,7,13,7,18,0.06,5,Rain,179
2013-1-9,55,48,42,46,44,33,100,95,51,30.42,30.33,30.20,10,4,0,9,3,,0.01,7,Fog-Rain,345
2013-1-10,52,46,39,52,46,35,100,97,64,30.34,30.04,29.82,10,5,1,18,9,20,0.20,8,Rain,110
2013-1-11,62,54,46,50,47,46,100,81,57,29.87,29.82,29.76,10,10,10,16,8,24,0.00,2,,185
2013-1-12,55,42,28,49,32,28,100,94,57,29.97,29.89,29.81,10,8,2,16,9,26,0.33,8,Rain,342
2013-1-13,28,21,13,28,21,12,100,94,86,30.39,30.15,29.95,10,10,9,6,2,,0.00,7,Snow,321
2013-1-14,25,18,10,18,14,8,95,85,71,30.51,30.43,30.40,10,10,10,6,2,,0.00,2,,18
2013-1-15,25,18,10,21,16,9,98,88,71,30.40,30.30,30.19,10,10,10,8,4,,0.00,4,,13
2013-1-16,40,27,14,22,19,13,96,71,41,30.18,30.15,30.08,10,10,10,10,3,,0.00,0,,235
2013-1-17,41,34,26,30,26,22,100,81,50,30.50,30.37,30.17,10,10,10,14,7,,0.00,4,,323
2013-1-18,55,39,23,27,24,20,91,57,29,30.51,30.35,30.16,10,10,10,13,7,24,0.00,0,,183
2013-1-19,64,52,41,37,30,25,64,47,29,30.18,30.09,29.99,10,10,10,17,10,30,0.00,0,,240
2013-1-20,43,34,22,31,18,12,75,51,28,30.32,30.26,30.20,10,10,10,10,6,,0.00,0,,359
2013-1-21,29,22,16,13,8,1,79,56,38,30.40,30.37,30.32,10,10,10,13,7,20,0.00,3,,323
2013-1-22,30,23,16,13,6,2,74,51,36,30.44,30.36,30.31,10,10,10,7,4,,0.00,4,,92
2013-1-23,54,36,18,32,22,13,87,64,43,30.35,30.25,30.15,10,10,10,12,7,,0.00,0,,265
2013-1-24,31,24,17,20,10,6,71,51,37,30.50,30.35,30.19,10,10,10,15,11,22,0.00,4,,87
2013-1-25,47,36,26,27,24,15,100,77,39,30.27,30.17,30.13,10,8,3,10,5,17,0.00,6,,242
2013-1-26,55,42,30,28,23,20,76,50,26,30.34,30.26,30.20,10,10,10,13,4,,0.00,3,,124
2013-1-27,57,46,35,55,41,28,100,89,63,30.20,30.07,29.93,10,10,8,17,13,30,0.08,8,Rain,164
2013-1-28,74,66,58,61,59,56,94,84,55,29.94,29.91,29.81,10,10,10,16,11,28,0.00,7,,197
2013-1-29,66,58,50,61,57,50,100,93,83,29.80,29.58,29.45,10,8,1,21,12,36,1.79,7,Rain-Thunderstorm,160
2013-1-30,50,38,25,50,34,18,100,89,69,29.99,29.60,29.37,10,10,2,23,12,34,0.03,7,Rain-Snow,263
2013-1-31,37,24,10,28,18,3,100,76,55,30.44,30.18,29.99,10,7,1,22,11,31,0.01,6,Snow,291